CST,Max TemperatureF,Mean TemperatureF,Min TemperatureF,Max Dew PointF,MeanDew PointF,Min DewpointF,Max Humidity, Mean Humidity, Min Humidity, Max Sea Level PressureIn, Mean Sea Level PressureIn, Min Sea Level PressureIn, Max VisibilityMiles, Mean VisibilityMiles, Min VisibilityMiles, Max Wind SpeedMPH, Mean Wind SpeedMPH, Max Gust SpeedMPH,PrecipitationIn, CloudCover, Events, WindDirDegrees
2011-12-1,46,36,25,33,29,23,96,78,53,30.39,30.33,30.26,10,10,9,7,3,,0.00,0,,169
2011-12-2,52,41,30,37,33,28,93,75,54,30.46,30.41,30.35,10,10,7,7,2,,0.00,2,,150
2011-12-3,61,50,39,37,33,30,75,52,35,30.40,30.30,30.16,10,10,10,18,9,23,0.00,1,,168
2011-12-4,54,52,47,51,45,33,100,84,45,30.19,30.15,30.13,10,5,1,20,11,,1.20,7,Rain,136
2011-12-5,46,42,39,46,42,37,100,98,87,30.15,30.10,30.05,10,5,2,14,10,25,1.53,8,Rain,1
2011-12-6,39,38,36,38,36,35,93,91,87,30.17,30.13,30.10,10,10,7,10,8,,0.00,8,,13
2011-12-7,39,32,26,34,29,25,93,80,60,30.28,30.13,30.04,10,10,9,14,8,21,0.00,6,,332
2011-12-8,44,34,25,30,26,24,96,76,46,30.36,30.28,30.25,10,8,3,13,5,,0.01,0,,197
2011-12-9,45,36,27,32,28,24,88,76,57,30.48,30.34,30.25,10,10,9,15,7,17,0.00,2,,292
2011-12-10,34,28,22,23,15,9,81,60,44,30.65,30.57,30.50,10,10,10,9,5,,0.00,0,,349
2011-12-11,41,31,21,21,18,14,85,63,32,30.61,30.52,30.44,10,10,10,12,1,,0.00,0,,147
2011-12-12,50,37,24,33,27,19,82,68,43,30.48,30.44,30.40,10,10,8,6,1,,0.00,1,,138
2011-12-13,48,41,34,47,42,32,100,95,86,30.50,30.42,30.32,10,5,2,7,2,,0.03,6,Rain,175
2011-12-14,62,54,46,54,51,46,100,85,67,30.30,30.14,29.98,10,7,3,20,10,25,0.00,3,,188
2011-12-15,64,50,36,61,51,27,100,87,68,30.32,30.02,29.91,10,7,2,21,14,34,0.34,7,Rain,244
2011-12-16,37,34,32,29,27,25,76,71,65,30.40,30.35,30.30,10,10,10,12,8,,0.00,3,,2
2011-12-17,42,33,24,30,26,23,96,78,53,30.43,30.36,30.28,10,9,4,10,4,,0.00,1,,246
2011-12-18,52,40,27,36,32,26,100,80,52,30.38,30.29,30.16,10,8,2,13,5,,0.00,0,,184
2011-12-19,51,45,39,41,37,33,80,69,58,30.19,30.14,30.11,10,10,7,13,8,,0.01,7,Rain,192
2011-12-20,59,50,41,59,48,33,100,89,68,30.13,29.94,29.74,10,7,2,16,6,18,0.12,7,Rain,164
2011-12-21,60,52,45,61,52,40,100,90,71,30.03,29.81,29.68,10,7,1,23,15,25,0.78,7,Rain-Thunderstorm,226
2011-12-22,45,44,41,43,42,39,97,91,79,30.20,30.07,29.98,10,7,2,12,4,,0.24,7,Rain,321
2011-12-23,41,38,32,38,35,28,100,87,73,30.41,30.32,30.19,10,8,1,12,9,,0.00,8,Rain,304
2011-12-24,43,36,28,32,29,26,93,82,63,30.49,30.43,30.38,10,10,7,13,6,,0.00,1,,217
2011-12-25,53,41,29,33,29,27,93,71,38,30.39,30.34,30.26,10,10,10,14,6,16,0.00,0,,263
2011-12-26,43,34,24,36,29,23,93,77,60,30.39,30.22,29.89,10,10,5,14,4,,0.12,1,Rain,118
2011-12-27,39,36,32,39,36,28,100,94,71,30.06,29.77,29.63,10,5,1,21,8,21,0.36,8,Rain-Snow,333
2011-12-28,41,35,29,32,29,26,92,80,61,30.15,30.09,30.01,10,10,10,8,5,,0.00,0,,247
2011-12-29,55,44,32,37,34,28,89,71,49,29.99,29.88,29.78,10,10,10,22,11,30,0.00,1,,195
2011-12-30,55,50,45,47,41,34,87,71,53,29.89,29.77,29.66,10,10,10,32,13,40,0.00,5,,219
2011-12-31,53,45,37,38,36,34,89,70,54,30.13,30.01,29.88,10,10,10,17,7,,0.00,4,,206